QPF
0.01 0.01 0.01 0.01 0.01 0.01 0.00 0.00 0.00 0.00 0.00 0.00 0.00 0.00 0.00 0.00 0.01 0.01 0.00 0.00 0.00 0.00 0.00 0.00 0.00 0.00 0.01 0.01 0.01 0.01 0.01 0.01 0.01 0.01 0.01 0.02 0.03 0.03 0.03 0.02 0.02 0.01 0.01 0.01
0.00 0.01 0.00 0.00 0.01 0.01 0.01 0.00 0.00 0.00 0.00 0.00 0.00 0.00 0.00 0.00 0.00 0.00 0.00 0.00 0.00 0.00 0.00 0.00 0.01 0.01 0.01 0.01 0.01 0.01 0.01 0.00 0.00 0.01 0.02 0.03 0.04 0.04 0.03 0.02 0.01 0.01 0.01 0.01
0.00 0.00 0.00 0.00 0.01 0.01 0.01 0.01 0.00 0.00 0.00 0.00 0.00 0.01 0.00 0.00 0.00 0.00 0.00 0.00 0.00 0.00 0.00 0.00 0.00 0.00 0.00 0.00 0.00 0.01 0.01 0.01 0.01 0.01 0.02 0.03 0.04 0.05 0.06 0.04 0.02 0.02 0.02 0.01
0.00 0.00 0.00 0.00 0.01 0.01 0.01 0.00 0.00 0.00 0.00 0.00 0.01 0.01 0.00 0.00 0.00 0.00 0.00 0.00 0.00 0.00 0.00 0.00 0.01 0.00 0.00 0.00 0.01 0.01 0.02 0.01 0.01 0.01 0.02 0.03 0.03 0.05 0.08 0.07 0.04 0.03 0.02 0.02
0.00 0.00 0.00 0.00 0.00 0.01 0.01 0.00 0.00 0.00 0.01 0.00 0.00 0.00 0.00 0.00 0.00 0.00 0.00 0.00 0.00 0.00 0.00 0.00 0.00 0.00 0.00 0.01 0.01 0.02 0.02 0.02 0.01 0.01 0.03 0.03 0.03 0.04 0.05 0.05 0.04 0.03 0.03 0.03
0.00 0.00 0.00 0.00 0.00 0.01 0.00 0.01 0.01 0.00 0.01 0.01 0.00 0.00 0.00 0.00 0.00 0.00 0.00 0.00 0.00 0.00 0.00 0.00 0.00 0.00 0.00 0.01 0.01 0.01 0.02 0.02 0.01 0.01 0.02 0.02 0.03 0.04 0.04 0.03 0.03 0.04 0.02 0.02
0.00 0.00 0.00 0.00 0.01 0.01 0.01 0.01 0.01 0.01 0.01 0.00 0.00 0.00 0.00 0.00 0.00 0.00 0.00 0.00 0.00 0.00 0.00 0.00 0.00 0.00 0.01 0.01 0.01 0.01 0.02 0.02 0.01 0.01 0.02 0.02 0.02 0.03 0.03 0.02 0.02 0.02 0.03 0.02
0.00 0.00 0.00 0.00 0.00 0.00 0.00 0.01 0.01 0.01 0.00 0.00 0.00 0.00 0.00 0.00 0.00 0.00 0.00 0.00 0.00 0.00 0.00 0.00 0.00 0.00 0.00 0.01 0.01 0.02 0.03 0.03 0.02 0.01 0.02 0.02 0.03 0.03 0.02 0.02 0.01 0.01 0.02 0.02
0.00 0.00 0.00 0.01 0.01 0.00 0.00 0.00 0.00 0.00 0.00 0.00 0.00 0.00 0.00 0.00 0.00 0.00 0.00 0.00 0.00 0.00 0.00 0.00 0.00 0.00 0.00 0.01 0.02 0.03 0.04 0.03 0.02 0.01 0.01 0.02 0.02 0.02 0.01 0.01 0.01 0.01 0.01 0.02
0.00 0.00 0.00 0.01 0.01 0.01 0.00 0.00 0.00 0.00 0.00 0.00 0.00 0.00 0.00 0.00 0.00 0.00 0.00 0.00 0.00 0.00 0.00 0.00 0.00 0.00 0.01 0.01 0.02 0.02 0.01 0.01 0.01 0.01 0.01 0.01 0.01 0.01 0.01 0.01 0.01 0.02 0.02 0.02
0.00 0.01 0.01 0.00 0.00 0.00 0.00 0.00 0.00 0.01 0.00 0.01 0.00 0.00 0.00 0.00 0.00 0.00 0.00 0.00 0.00 0.00 0.00 0.00 0.00 0.01 0.01 0.01 0.02 0.02 0.02 0.01 0.01 0.01 0.01 0.01 0.01 0.01 0.03 0.02 0.01 0.03 0.04 0.02
0.00 0.00 0.00 0.00 0.00 0.00 0.00 0.00 0.00 0.00 0.00 0.00 0.01 0.00 0.00 0.00 0.00 0.00 0.00 0.00 0.00 0.00 0.00 0.00 0.00 0.01 0.01 0.01 0.01 0.02 0.02 0.02 0.02 0.01 0.01 0.01 0.02 0.01 0.02 0.03 0.02 0.03 0.05 0.04
0.00 0.00 0.00 0.00 0.00 0.00 0.00 0.00 0.00 0.00 0.01 0.01 0.00 0.00 0.00 0.00 0.00 0.00 0.00 0.00 0.00 0.00 0.00 0.00 0.00 0.01 0.01 0.01 0.01 0.01 0.02 0.02 0.02 0.02 0.01 0.01 0.02 0.02 0.02 0.03 0.02 0.03 0.04 0.03
0.01 0.00 0.00 0.00 0.00 0.00 0.00 0.00 0.00 0.00 0.00 0.01 0.00 0.00 0.00 0.00 0.00 0.00 0.00 0.00 0.00 0.00 0.00 0.00 0.00 0.00 0.00 0.01 0.01 0.01 0.03 0.03 0.03 0.03 0.02 0.01 0.02 0.02 0.02 0.02 0.02 0.02 0.02 0.01
0.01 0.01 0.00 0.00 0.00 0.00 0.00 0.00 0.00 0.00 0.00 0.00 0.00 0.00 0.00 0.00 0.00 0.00 0.00 0.00 0.00 0.00 0.00 0.00 0.00 0.00 0.00 0.00 0.01 0.01 0.03 0.04 0.05 0.04 0.03 0.02 0.02 0.02 0.02 0.02 0.02 0.02 0.02 0.02
0.01 0.01 0.01 0.00 0.00 0.00 0.00 0.00 0.00 0.00 0.00 0.00 0.00 0.00 0.00 0.00 0.00 0.00 0.00 0.00 0.00 0.00 0.00 0.00 0.00 0.00 0.00 0.00 0.01 0.01 0.01 0.03 0.04 0.04 0.04 0.03 0.02 0.02 0.02 0.02 0.03 0.03 0.03 0.02
0.01 0.01 0.01 0.00 0.00 0.00 0.00 0.00 0.00 0.00 0.00 0.00 0.00 0.00 0.00 0.00 0.00 0.00 0.00 0.00 0.00 0.00 0.00 0.01 0.01 0.01 0.01 0.01 0.00 0.01 0.01 0.02 0.03 0.04 0.05 0.04 0.02 0.01 0.01 0.02 0.03 0.03 0.03 0.02
0.01 0.01 0.01 0.01 0.00 0.00 0.00 0.00 0.00 0.00 0.00 0.00 0.00 0.00 0.00 0.00 0.00 0.00 0.00 0.00 0.00 0.00 0.01 0.01 0.01 0.01 0.01 0.01 0.00 0.00 0.01 0.02 0.04 0.04 0.04 0.02 0.01 0.01 0.01 0.01 0.03 0.04 0.03 0.02
0.01 0.01 0.01 0.01 0.01 0.00 0.00 0.00 0.00 0.00 0.00 0.00 0.00 0.00 0.00 0.00 0.00 0.00 0.00 0.00 0.01 0.01 0.01 0.01 0.01 0.01 0.01 0.01 0.00 0.01 0.01 0.03 0.05 0.05 0.03 0.03 0.03 0.02 0.03 0.02 0.03 0.04 0.03 0.03
0.01 0.01 0.01 0.01 0.01 0.01 0.01 0.00 0.00 0.00 0.00 0.00 0.00 0.00 0.00 0.00 0.00 0.00 0.00 0.00 0.01 0.01 0.02 0.02 0.01 0.01 0.01 0.01 0.01 0.01 0.02 0.03 0.05 0.06 0.04 0.05 0.05 0.05 0.04 0.03 0.03 0.04 0.03 0.03
0.01 0.01 0.01 0.01 0.01 0.01 0.00 0.00 0.00 0.00 0.00 0.00 0.00 0.00 0.00 0.00 0.00 0.00 0.00 0.00 0.00 0.01 0.02 0.02 0.01 0.01 0.01 0.01 0.01 0.01 0.02 0.03 0.04 0.04 0.03 0.04 0.05 0.06 0.05 0.05 0.04 0.03 0.03 0.03
0.01 0.01 0.01 0.01 0.01 0.01 0.00 0.00 0.01 0.00 0.00 0.00 0.00 0.00 0.00 0.00 0.00 0.00 0.00 0.00 0.00 0.01 0.01 0.02 0.01 0.01 0.01 0.01 0.01 0.02 0.02 0.02 0.02 0.03 0.03 0.03 0.03 0.03 0.03 0.04 0.04 0.03 0.02 0.02
0.01 0.01 0.01 0.01 0.01 0.01 0.00 0.00 0.00 0.00 0.00 0.00 0.00 0.00 0.00 0.00 0.00 0.00 0.00 0.00 0.00 0.00 0.01 0.02 0.01 0.01 0.01 0.02 0.02 0.02 0.02 0.02 0.02 0.03 0.03 0.03 0.03 0.02 0.01 0.02 0.03 0.03 0.03 0.02
0.01 0.01 0.01 0.01 0.01 0.00 0.00 0.00 0.00 0.00 0.00 0.00 0.00 0.00 0.00 0.00 0.00 0.00 0.00 0.00 0.00 0.00 0.01 0.02 0.02 0.01 0.02 0.02 0.01 0.01 0.01 0.01 0.01 0.03 0.04 0.03 0.03 0.02 0.01 0.01 0.01 0.02 0.02 0.02
0.01 0.01 0.01 0.01 0.01 0.00 0.00 0.00 0.00 0.00 0.00 0.00 0.00 0.00 0.00 0.00 0.00 0.00 0.00 0.00 0.00 0.00 0.00 0.01 0.02 0.01 0.01 0.01 0.01 0.01 0.01 0.00 0.01 0.02 0.02 0.03 0.03 0.03 0.02 0.01 0.01 0.01 0.01 0.02
0.00 0.01 0.01 0.01 0.00 0.00 0.00 0.00 0.00 0.00 0.00 0.00 0.00 0.00 0.00 0.00 0.00 0.00 0.00 0.00 0.00 0.00 0.00 0.00 0.01 0.01 0.01 0.01 0.01 0.00 0.00 0.00 0.00 0.01 0.02 0.02 0.03 0.03 0.03 0.02 0.01 0.01 0.01 0.01
MSLP
1010.55 1011.21 1011.76 1012.17 1012.47 1012.67 1012.79 1012.83 1012.79 1012.67 1012.46 1012.16 1011.80 1011.40 1011.02 1010.72 1010.55 1010.54 1010.70 1011.01 1011.43 1011.90 1012.36 1012.76 1013.08 1013.33 1013.53 1013.72 1013.92 1014.16 1014.45 1014.77 1015.08 1015.34 1015.54 1015.65 1015.69 1015.70 1015.72 1015.82 1016.04 1016.40 1016.90 1017.50
1010.61 1011.16 1011.59 1011.90 1012.13 1012.29 1012.40 1012.45 1012.44 1012.34 1012.13 1011.81 1011.38 1010.91 1010.44 1010.05 1009.82 1009.78 1009.95 1010.32 1010.83 1011.41 1011.99 1012.50 1012.92 1013.24 1013.48 1013.67 1013.86 1014.09 1014.35 1014.64 1014.94 1015.20 1015.40 1015.52 1015.57 1015.59 1015.63 1015.74 1015.98 1016.36 1016.89 1017.53
1010.50 1010.95 1011.28 1011.52 1011.70 1011.86 1012.00 1012.10 1012.14 1012.07 1011.87 1011.52 1011.03 1010.46 1009.88 1009.39 1009.07 1008.98 1009.14 1009.55 1010.13 1010.81 1011.51 1012.14 1012.67 1013.06 1013.36 1013.58 1013.77 1013.99 1014.24 1014.52 1014.81 1015.08 1015.28 1015.42 1015.49 1015.52 1015.56 1015.68 1015.92 1016.31 1016.85 1017.51
1010.20 1010.56 1010.82 1011.03 1011.22 1011.42 1011.63 1011.81 1011.93 1011.92 1011.74 1011.36 1010.80 1010.12 1009.42 1008.80 1008.36 1008.19 1008.31 1008.71 1009.34 1010.11 1010.91 1011.65 1012.28 1012.77 1013.13 1013.39 1013.62 1013.84 1014.09 1014.38 1014.68 1014.96 1015.19 1015.35 1015.44 1015.48 1015.53 1015.64 1015.87 1016.24 1016.78 1017.44
1009.69 1009.99 1010.22 1010.44 1010.68 1010.97 1011.29 1011.60 1011.82 1011.89 1011.74 1011.34 1010.72 1009.93 1009.09 1008.32 1007.74 1007.46 1007.51 1007.88 1008.52 1009.34 1010.22 1011.06 1011.79 1012.37 1012.80 1013.13 1013.39 1013.64 1013.92 1014.22 1014.54 1014.85 1015.11 1015.29 1015.40 1015.46 1015.51 1015.61 1015.81 1016.16 1016.66 1017.30
1009.01 1009.27 1009.50 1009.76 1010.09 1010.49 1010.95 1011.40 1011.75 1011.91 1011.81 1011.41 1010.73 1009.85 1008.88 1007.96 1007.25 1006.83 1006.79 1007.10 1007.73 1008.57 1009.51 1010.43 1011.24 1011.91 1012.42 1012.81 1013.13 1013.42 1013.72 1014.05 1014.40 1014.74 1015.02 1015.24 1015.37 1015.44 1015.49 1015.57 1015.74 1016.04 1016.50 1017.11
1008.23 1008.45 1008.70 1009.01 1009.44 1009.97 1010.57 1011.16 1011.64 1011.89 1011.85 1011.46 1010.76 1009.81 1008.73 1007.70 1006.87 1006.34 1006.20 1006.46 1007.05 1007.89 1008.87 1009.84 1010.73 1011.47 1012.05 1012.51 1012.87 1013.20 1013.54 1013.89 1014.26 1014.62 1014.94 1015.18 1015.33 1015.41 1015.46 1015.52 1015.65 1015.91 1016.32 1016.88
1007.44 1007.63 1007.88 1008.24 1008.74 1009.37 1010.08 1010.79 1011.37 1011.72 1011.73 1011.38 1010.68 1009.70 1008.59 1007.49 1006.58 1005.99 1005.78 1005.99 1006.55 1007.39 1008.37 1009.38 1010.32 1011.12 1011.76 1012.26 1012.67 1013.03 1013.39 1013.76 1014.14 1014.52 1014.85 1015.11 1015.28 1015.37 1015.41 1015.46 1015.56 1015.78 1016.14 1016.65
1006.75 1006.90 1007.14 1007.51 1008.04 1008.72 1009.49 1010.26 1010.91 1011.31 1011.38 1011.07 1010.41 1009.46 1008.36 1007.27 1006.36 1005.75 1005.52 1005.71 1006.26 1007.08 1008.08 1009.10 1010.07 1010.90 1011.58 1012.12 1012.55 1012.93 1013.29 1013.66 1014.04 1014.42 1014.76 1015.03 1015.22 1015.32 1015.38 1015.42 1015.50 1015.68 1016.00 1016.47
1006.27 1006.36 1006.55 1006.89 1007.40 1008.06 1008.82 1009.58 1010.23 1010.64 1010.74 1010.48 1009.88 1009.01 1007.99 1006.98 1006.14 1005.58 1005.39 1005.59 1006.15 1006.98 1007.97 1009.00 1009.97 1010.82 1011.52 1012.07 1012.51 1012.89 1013.24 1013.60 1013.97 1014.34 1014.68 1014.96 1015.16 1015.29 1015.36 1015.41 1015.50 1015.66 1015.94 1016.37
1006.06 1006.08 1006.20 1006.47 1006.89 1007.47 1008.13 1008.80 1009.38 1009.75 1009.84 1009.62 1009.09 1008.33 1007.44 1006.58 1005.86 1005.42 1005.32 1005.58 1006.17 1007.00 1007.99 1009.01 1009.98 1010.82 1011.52 1012.07 1012.51 1012.88 1013.23 1013.57 1013.92 1014.28 1014.62 1014.91 1015.14 1015.30 1015.40 1015.49 1015.59 1015.75 1016.02 1016.40
1006.10 1006.06 1006.10 1006.26 1006.56 1006.98 1007.48 1008.00 1008.43 1008.70 1008.75 1008.53 1008.08 1007.44 1006.72 1006.03 1005.50 1005.21 1005.23 1005.57 1006.20 1007.06 1008.03 1009.04 1009.98 1010.82 1011.50 1012.06 1012.50 1012.87 1013.21 1013.55 1013.90 1014.25 1014.59 1014.90 1015.16 1015.37 1015.52 1015.65 1015.79 1015.97 1016.23 1016.59
1006.32 1006.23 1006.19 1006.24 1006.39 1006.63 1006.92 1007.23 1007.47 1007.59 1007.54 1007.31 1006.91 1006.39 1005.84 1005.34 1005.00 1004.88 1005.04 1005.48 1006.16 1007.02 1007.98 1008.96 1009.89 1010.70 1011.39 1011.95 1012.41 1012.80 1013.16 1013.51 1013.88 1014.24 1014.61 1014.95 1015.26 1015.51 1015.73 1015.92 1016.11 1016.33 1016.59 1016.92
1006.59 1006.47 1006.38 1006.32 1006.32 1006.36 1006.44 1006.50 1006.52 1006.46 1006.29 1006.01 1005.64 1005.22 1004.82 1004.51 1004.35 1004.40 1004.69 1005.22 1005.94 1006.81 1007.76 1008.71 1009.61 1010.42 1011.12 1011.70 1012.20 1012.64 1013.05 1013.45 1013.85 1014.26 1014.67 1015.05 1015.41 1015.73 1016.02 1016.27 1016.52 1016.77 1017.05 1017.38
1006.76 1006.64 1006.52 1006.39 1006.25 1006.11 1005.96 1005.79 1005.58 1005.33 1005.02 1004.68 1004.31 1003.97 1003.70 1003.54 1003.55 1003.76 1004.17 1004.76 1005.52 1006.39 1007.32 1008.25 1009.13 1009.94 1010.66 1011.30 1011.86 1012.38 1012.87 1013.35 1013.82 1014.29 1014.75 1015.19 1015.61 1015.99 1016.34 1016.66 1016.96 1017.26 1017.57 1017.88
1006.71 1006.62 1006.49 1006.30 1006.06 1005.77 1005.43 1005.04 1004.62 1004.17 1003.73 1003.31 1002.94 1002.66 1002.49 1002.47 1002.63 1002.96 1003.47 1004.12 1004.91 1005.77 1006.67 1007.58 1008.45 1009.27 1010.04 1010.74 1011.40 1012.02 1012.62 1013.20 1013.77 1014.31 1014.84 1015.34 1015.81 1016.25 1016.65 1017.03 1017.38 1017.72 1018.05 1018.37
1006.41 1006.34 1006.20 1005.98 1005.66 1005.24 1004.74 1004.17 1003.57 1002.97 1002.40 1001.92 1001.54 1001.30 1001.22 1001.33 1001.61 1002.05 1002.64 1003.35 1004.15 1005.01 1005.89 1006.78 1007.64 1008.49 1009.30 1010.09 1010.85 1011.60 1012.31 1013.01 1013.68 1014.31 1014.91 1015.46 1015.97 1016.45 1016.89 1017.30 1017.70 1018.07 1018.43 1018.77
1005.88 1005.81 1005.66 1005.40 1005.02 1004.50 1003.86 1003.15 1002.41 1001.68 1001.03 1000.49 1000.12 999.93 999.94 1000.15 1000.54 1001.09 1001.76 1002.52 1003.34 1004.19 1005.06 1005.93 1006.80 1007.66 1008.53 1009.40 1010.27 1011.12 1011.96 1012.77 1013.54 1014.26 1014.92 1015.51 1016.06 1016.55 1017.01 1017.45 1017.86 1018.26 1018.65 1019.02
1005.26 1005.15 1004.96 1004.64 1004.18 1003.57 1002.83 1002.01 1001.16 1000.34 999.63 999.07 998.72 998.59 998.68 999.00 999.50 1000.15 1000.90 1001.71 1002.55 1003.41 1004.27 1005.13 1006.00 1006.88 1007.79 1008.72 1009.68 1010.64 1011.58 1012.49 1013.35 1014.13 1014.84 1015.47 1016.03 1016.53 1016.99 1017.43 1017.86 1018.28 1018.70 1019.10
1004.70 1004.50 1004.22 1003.82 1003.27 1002.57 1001.74 1000.82 999.89 999.01 998.27 997.71 997.39 997.32 997.51 997.94 998.55 999.29 1000.12 1001.00 1001.88 1002.74 1003.60 1004.45 1005.31 1006.20 1007.13 1008.11 1009.12 1010.15 1011.18 1012.16 1013.09 1013.93 1014.68 1015.33 1015.89 1016.39 1016.84 1017.28 1017.71 1018.14 1018.58 1019.02
1004.34 1004.01 1003.61 1003.10 1002.44 1001.64 1000.72 999.72 998.72 997.80 997.04 996.49 996.21 996.21 996.49 997.01 997.73 998.57 999.49 1000.42 1001.34 1002.22 1003.08 1003.91 1004.76 1005.64 1006.57 1007.55 1008.60 1009.67 1010.75 1011.79 1012.77 1013.65 1014.43 1015.10 1015.67 1016.16 1016.61 1017.03 1017.46 1017.90 1018.36 1018.84
1004.25 1003.77 1003.23 1002.58 1001.80 1000.89 999.88 998.81 997.76 996.80 996.02 995.49 995.24 995.30 995.65 996.26 997.07 998.00 998.99 999.99 1000.94 1001.85 1002.70 1003.52 1004.34 1005.19 1006.09 1007.07 1008.11 1009.20 1010.30 1011.38 1012.39 1013.31 1014.12 1014.81 1015.39 1015.88 1016.33 1016.74 1017.17 1017.62 1018.10 1018.61
1004.39 1003.76 1003.07 1002.30 1001.41 1000.40 999.31 998.18 997.07 996.09 995.29 994.76 994.53 994.63 995.03 995.71 996.58 997.58 998.63 999.67 1000.66 1001.58 1002.42 1003.22 1004.01 1004.82 1005.69 1006.63 1007.65 1008.73 1009.83 1010.93 1011.97 1012.92 1013.76 1014.48 1015.09 1015.60 1016.05 1016.47 1016.90 1017.35 1017.85 1018.38
1004.63 1003.88 1003.08 1002.21 1001.23 1000.16 999.00 997.82 996.68 995.67 994.86 994.31 994.08 994.19 994.61 995.31 996.22 997.26 998.35 999.43 1000.44 1001.37 1002.21 1002.98 1003.74 1004.51 1005.33 1006.22 1007.20 1008.25 1009.35 1010.45 1011.51 1012.50 1013.38 1014.14 1014.78 1015.32 1015.80 1016.23 1016.67 1017.12 1017.62 1018.18
1004.76 1003.95 1003.10 1002.18 1001.17 1000.07 998.90 997.70 996.54 995.50 994.67 994.10 993.85 993.93 994.34 995.04 995.95 996.99 998.10 999.19 1000.21 1001.15 1001.98 1002.74 1003.47 1004.19 1004.97 1005.82 1006.75 1007.77 1008.85 1009.95 1011.03 1012.04 1012.96 1013.77 1014.46 1015.04 1015.55 1016.01 1016.45 1016.92 1017.42 1017.98
1004.61 1003.81 1002.97 1002.07 1001.09 1000.01 998.86 997.68 996.53 995.49 994.64 994.05 993.76 993.80 994.16 994.82 995.69 996.72 997.81 998.90 999.93 1000.86 1001.70 1002.45 1003.16 1003.85 1004.59 1005.40 1006.29 1007.27 1008.33 1009.42 1010.50 1011.54 1012.50 1013.35 1014.09 1014.72 1015.26 1015.74 1016.21 1016.68 1017.19 1017.74
Thickness
5749 5742 5735 5738 5740 5739 5736 5732 5729 5731 5738 5734 5732 5731 5735 5739 5737 5736 5736 5736 5735 5735 5736 5734 5732 5730 5729 5727 5725 5724 5721 5719 5716 5713 5711 5709 5707 5707 5707 5706 5705 5704 5704 5703
5738 5733 5740 5742 5739 5736 5733 5728 5727 5730 5735 5732 5729 5729 5735 5737 5734 5734 5735 5734 5733 5732 5731 5729 5727 5725 5724 5722 5720 5720 5717 5715 5713 5710 5708 5706 5704 5703 5702 5700 5699 5699 5699 5698
5731 5735 5740 5735 5731 5729 5729 5727 5726 5724 5727 5731 5727 5724 5729 5733 5734 5732 5732 5732 5732 5729 5727 5725 5723 5721 5720 5718 5716 5715 5713 5711 5709 5707 5704 5702 5699 5698 5697 5696 5695 5694 5694 5694
5731 5736 5734 5731 5728 5728 5722 5731 5728 5724 5721 5720 5721 5714 5725 5730 5728 5728 5728 5729 5728 5726 5725 5722 5719 5718 5716 5714 5713 5712 5710 5708 5706 5703 5701 5698 5695 5693 5693 5693 5692 5690 5689 5689
5727 5730 5728 5725 5727 5728 5726 5729 5727 5724 5722 5719 5720 5716 5723 5728 5723 5725 5726 5726 5725 5724 5722 5719 5716 5715 5713 5711 5709 5708 5706 5704 5702 5700 5697 5695 5693 5692 5690 5689 5688 5687 5686 5685
5728 5732 5731 5729 5731 5729 5727 5724 5722 5721 5720 5708 5716 5712 5715 5724 5723 5724 5725 5724 5723 5721 5719 5716 5714 5712 5709 5707 5704 5703 5701 5699 5697 5696 5694 5692 5690 5688 5685 5684 5683 5683 5683 5681
5718 5724 5729 5730 5723 5724 5724 5716 5704 5701 5701 5705 5716 5710 5714 5724 5725 5723 5721 5721 5720 5719 5716 5713 5709 5706 5704 5701 5700 5699 5697 5695 5694 5692 5691 5689 5687 5685 5683 5681 5680 5679 5679 5677
5708 5709 5720 5724 5722 5718 5719 5717 5700 5689 5693 5705 5709 5706 5716 5722 5723 5722 5721 5719 5717 5715 5712 5709 5706 5702 5699 5697 5696 5695 5693 5690 5689 5688 5687 5685 5683 5681 5680 5678 5677 5676 5675 5674
5708 5707 5719 5720 5723 5721 5714 5712 5715 5706 5701 5697 5706 5711 5715 5719 5717 5716 5714 5713 5712 5710 5707 5705 5702 5699 5696 5694 5692 5690 5688 5686 5684 5683 5681 5680 5678 5677 5675 5674 5673 5672 5671 5670
5713 5703 5711 5714 5716 5713 5716 5713 5706 5699 5687 5688 5696 5702 5706 5709 5711 5711 5710 5709 5708 5707 5704 5701 5698 5695 5693 5690 5687 5685 5683 5682 5679 5678 5676 5674 5672 5672 5670 5670 5668 5668 5667 5665
5710 5702 5703 5706 5704 5705 5705 5703 5702 5700 5697 5687 5685 5697 5712 5711 5710 5708 5708 5708 5706 5703 5700 5697 5694 5691 5688 5685 5682 5680 5679 5676 5674 5673 5671 5669 5667 5666 5665 5664 5663 5662 5661 5660
5701 5701 5697 5700 5706 5706 5706 5704 5701 5691 5690 5690 5687 5695 5713 5711 5710 5707 5706 5705 5703 5700 5697 5693 5690 5686 5683 5680 5677 5676 5674 5672 5669 5667 5666 5664 5662 5660 5659 5658 5657 5657 5656 5655
5692 5693 5686 5687 5691 5696 5696 5697 5697 5697 5692 5688 5682 5691 5707 5707 5704 5703 5700 5700 5698 5695 5691 5688 5684 5681 5677 5675 5673 5671 5669 5666 5664 5662 5660 5659 5657 5655 5653 5652 5652 5651 5651 5651
5688 5690 5686 5681 5689 5692 5689 5688 5689 5689 5684 5686 5689 5692 5698 5697 5696 5696 5695 5694 5692 5689 5685 5682 5678 5676 5672 5670 5667 5666 5663 5661 5659 5657 5655 5653 5651 5649 5648 5647 5646 5645 5645 5645
5683 5681 5685 5687 5689 5686 5685 5684 5685 5684 5687 5684 5689 5689 5694 5694 5693 5692 5691 5688 5685 5682 5679 5676 5673 5671 5668 5665 5663 5661 5658 5656 5654 5652 5649 5648 5646 5644 5642 5641 5640 5639 5639 5640
5677 5674 5676 5676 5679 5678 5676 5681 5681 5680 5682 5683 5684 5685 5694 5693 5691 5688 5686 5682 5678 5676 5674 5672 5669 5666 5663 5661 5658 5656 5653 5651 5649 5646 5644 5642 5640 5638 5636 5635 5635 5634 5633 5633
5669 5669 5665 5668 5673 5670 5670 5681 5679 5679 5682 5681 5678 5684 5687 5683 5681 5681 5679 5677 5674 5672 5669 5667 5665 5662 5660 5658 5655 5651 5649 5646 5644 5641 5639 5637 5636 5633 5632 5630 5629 5628 5628 5627
5662 5663 5660 5660 5660 5653 5677 5684 5681 5676 5677 5680 5679 5679 5679 5678 5676 5676 5675 5672 5670 5667 5664 5662 5661 5658 5656 5654 5650 5647 5644 5642 5638 5636 5633 5632 5630 5628 5626 5625 5624 5623 5623 5622
5658 5655 5652 5651 5650 5660 5670 5674 5672 5669 5669 5675 5673 5672 5671 5671 5670 5671 5670 5667 5665 5662 5661 5659 5657 5654 5651 5648 5645 5642 5639 5637 5634 5631 5628 5628 5626 5624 5622 5620 5619 5618 5618 5617
5647 5650 5647 5644 5639 5646 5664 5670 5671 5666 5661 5670 5668 5665 5664 5662 5659 5663 5664 5661 5658 5656 5655 5653 5651 5649 5645 5643 5640 5637 5635 5633 5630 5626 5624 5623 5622 5619 5617 5616 5615 5613 5612 5611
5636 5635 5636 5638 5637 5650 5661 5661 5660 5649 5656 5662 5662 5660 5658 5655 5657 5658 5657 5654 5652 5650 5649 5647 5645 5642 5639 5637 5635 5632 5631 5629 5626 5623 5620 5618 5617 5615 5613 5611 5609 5608 5607 5606
5636 5633 5633 5634 5631 5640 5652 5650 5648 5653 5657 5656 5655 5654 5652 5651 5650 5649 5648 5646 5645 5643 5642 5640 5638 5636 5633 5631 5629 5627 5625 5623 5621 5617 5614 5613 5611 5609 5607 5605 5603 5602 5601 5600
5630 5634 5635 5635 5638 5645 5646 5646 5648 5648 5647 5648 5647 5646 5644 5642 5641 5640 5640 5639 5638 5637 5635 5633 5631 5630 5628 5625 5623 5621 5619 5617 5614 5611 5609 5607 5605 5603 5601 5599 5597 5596 5595 5595
5626 5625 5624 5627 5633 5636 5636 5637 5638 5639 5638 5639 5638 5638 5636 5634 5634 5633 5633 5632 5631 5630 5628 5627 5625 5623 5622 5619 5617 5615 5613 5611 5609 5606 5604 5601 5600 5598 5596 5594 5593 5591 5590 5590
5618 5616 5617 5620 5626 5626 5627 5628 5629 5629 5630 5629 5629 5630 5629 5628 5627 5626 5626 5625 5624 5622 5622 5620 5619 5617 5616 5614 5611 5608 5606 5605 5604 5602 5599 5597 5594 5592 5590 5588 5586 5585 5583 5582
5612 5611 5612 5617 5624 5621 5623 5624 5623 5621 5621 5621 5620 5620 5621 5620 5619 5619 5619 5617 5616 5615 5615 5613 5612 5610 5609 5608 5605 5603 5600 5598 5598 5596 5594 5592 5589 5586 5584 5583 5581 5577 5575 5574